User: anonymous   Login
Location: NJAA Observatory
(40.6819°N, 74.8979°W)
Time: 21:12:02
(UTC-04:00)
Language:

ALOS - Orbit

View from above orbital plane
View from above orbital plane
View from above satellite
View from above satellite

Ground track
Ground track

The orbit data is extracted from the following two-line orbital elements,

1 28931U 06002A   15247.19484484  .00000288  00000-0  66297-4 0  9994
2 28931  97.9264 293.4112 0001146 134.7050 225.4245 14.61956854512186
Epoch (UTC): 04 September 2015 04:40:34
Eccentricity: 0.0001146
inclination: 97.9264°
perigee height: 686 km
apogee height: 687 km
right ascension of ascending node: 293.4112°
argument of perigee: 134.7050°
revolutions per day: 14.61956854
mean anomaly at epoch: 225.4245°
orbit number at epoch: 51218

The dashed part of the orbit path shows where the satellite is in the earth's shadow,  

DLR